[TLELIST] Archives

 

Current TLEs

October 12th 2007 PDT

HST 1 20580U 90037B 07283.95928547 +.00000360 +00000-0 +15042-4 0 00001 2 20580 028.4675 155.1549 0003640 239.7889 120.2338 15.00288420757365 ISS (ZARYA) 1 25544U 98067A 07285.36390166 .00009830 00000-0 67198-4 0 1465 2 25544 051.6354 219.5217 0003388 086.2545 008.0812 15.75558788509265 CXO 1 25867U 99040B 07284.00000000 .00000345 00000-0 10000-3 0 1225 2 25867 062.4945 086.6960 6397906 282.2256 357.3549 00.37805065 2688 ____________________________________________________________________ These 2-Line ...Continue Reading

Current TLEs

October 11th 2007 PDT

HST 1 20580U 90037B 07284.02580849 .00000358 00000-0 14944-4 0 9791 2 20580 028.4675 154.7212 0003640 240.4259 119.5965 15.00288438757374 ISS (ZARYA) 1 25544U 98067A 07284.34791824 .00009008 00000-0 61994-4 0 1395 2 25544 051.6346 224.7504 0003206 086.5091 001.2980 15.75534512509104 CXO 1 25867U 99040B 07284.00000000 .00000345 00000-0 10000-3 0 1225 2 25867 062.4945 086.6960 6397906 282.2256 357.3549 00.37805065 2688 ____________________________________________________________________ These 2-Line ...Continue Reading

Current TLEs

October 10th 2007 PDT

HST 1 20580U 90037B 07282.89491633 .00000351 00000-0 14356-4 0 9785 2 20580 028.4677 162.0969 0003914 230.0716 129.9522 15.00287940757207 ISS (ZARYA) 1 25544U 98067A 07283.46290631 .00008955 00000-0 61702-4 0 1349 2 25544 051.6343 229.3059 0003147 085.1621 019.5605 15.75517147508969 CXO 1 25867U 99040B 07284.00000000 .00000345 00000-0 10000-3 0 1225 2 25867 062.4945 086.6960 6397906 282.2256 357.3549 00.37805065 2688 ____________________________________________________________________ These 2-Line ...Continue Reading

Current TLEs

October 9th 2007 PDT

HST 1 20580U 90037B 07280.96574831 +.00000363 +00000-0 +15257-4 0 09956 2 20580 028.4678 174.6759 0004006 210.2784 149.7573 15.00287285756917 ISS (ZARYA) 1 25544U 98067A 07282.44718869 .00009218 00000-0 63439-4 0 1278 2 25544 051.6346 234.5339 0003122 081.4843 018.3735 15.75498502508806 CXO 1 25867U 99040B 07281.37500000 .00000312 00000-0 10000-3 0 1210 2 25867 062.4807 086.7483 6394489 282.2786 359.9386 00.37805062 2670 ____________________________________________________________________ These 2-Line ...Continue Reading

Current TLEs

October 8th 2007 PDT

HST 1 20580U 90037B 07280.96574831 +.00000363 +00000-0 +15257-4 0 09956 2 20580 028.4678 174.6759 0004006 210.2784 149.7573 15.00287285756917 ISS (ZARYA) 1 25544U 98067A 07280.97856134 +.00009667 +00000-0 +66406-4 0 01176 2 25544 051.6338 242.0930 0003022 075.2033 329.3545 15.75470972508578 CXO 1 25867U 99040B 07281.37500000 .00000312 00000-0 10000-3 0 1210 2 25867 062.4807 086.7483 6394489 282.2786 359.9386 00.37805062 2670 ____________________________________________________________________ These 2-Line ...Continue Reading

Current TLEs

October 7th 2007 PDT

HST 1 20580U 90037B 07279.90138068 .00000379 00000-0 16568-4 0 9768 2 20580 028.4681 181.6242 0004015 200.6551 159.3875 15.00287119756751 ISS (ZARYA) 1 25544U 98067A 07280.36412517 .00009930 00000-0 68127-4 0 1133 2 25544 051.6344 245.2544 0003092 075.9187 081.4066 15.75459365508471 CXO 1 25867U 99040B 07281.37500000 .00000312 00000-0 10000-3 0 1210 2 25867 062.4807 086.7483 6394489 282.2786 359.9386 00.37805062 2670 ____________________________________________________________________ These 2-Line ...Continue Reading

Current TLEs

October 6th 2007 PDT

HST 1 20580U 90037B 07278.17178167 .00000426 00000-0 20228-4 0 9750 2 20580 028.4678 192.9039 0003982 183.3423 176.7139 15.00286521756496 ISS (ZARYA) 1 25544U 98067A 07279.46501277 .00010257 00000-0 70287-4 0 1082 2 25544 051.6341 249.8828 0003185 068.9646 025.4944 15.75441794508333 CXO 1 25867U 99040B 07278.66666667 .00000253 00000-0 10000-3 0 1203 2 25867 062.4725 086.8158 6389911 282.3319 351.1904 00.37802162 2663 ____________________________________________________________________ These 2-Line ...Continue Reading

Current TLEs

October 5th 2007 PDT

HST 1 20580U 90037B 07278.17178167 .00000426 00000-0 20228-4 0 9750 2 20580 028.4678 192.9039 0003982 183.3423 176.7139 15.00286521756496 ISS (ZARYA) 1 25544U 98067A 07278.51444564 .00010203 00000-0 69995-4 0 1021 2 25544 051.6347 254.7755 0003255 065.3050 034.3204 15.75421212508185 CXO 1 25867U 99040B 07278.66666667 .00000253 00000-0 10000-3 0 1203 2 25867 062.4725 086.8158 6389911 282.3319 351.1904 00.37802162 2663 ____________________________________________________________________ These 2-Line ...Continue Reading

Current TLEs

October 4th 2007 PDT

HST 1 20580U 90037B 07275.97652013 +.00000408 +00000-0 +18828-4 0 09890 2 20580 028.4680 207.2210 0003997 162.6442 197.4283 15.00285264756164 ISS (ZARYA) 1 25544U 98067A 07277.18408853 .00009314 00000-0 64360-4 0 979 2 25544 051.6343 261.6200 0003035 062.6677 046.7831 15.75389133507978 CXO 1 25867U 99040B 07276.04166667 .00000219 00000-0 10000-3 0 1198 2 25867 062.4650 086.8707 6384838 282.4058 353.7753 00.37798337 2651 ____________________________________________________________________ These 2-Line ...Continue Reading

Current TLEs

October 3rd 2007 PDT

HST 1 20580U 90037B 07276.17608935 .00000429 00000-0 20446-4 0 9743 2 20580 028.4679 205.9174 0003994 163.1752 196.8970 15.00285504756199 ISS (ZARYA) 1 25544U 98067A 07276.49222639 .00009253 00000-0 64002-4 0 917 2 25544 051.6347 265.1816 0003049 062.1956 080.7911 15.75374847507865 CXO 1 25867U 99040B 07276.04166667 .00000219 00000-0 10000-3 0 1198 2 25867 062.4650 086.8707 6384838 282.4058 353.7753 00.37798337 2651 ____________________________________________________________________ These 2-Line ...Continue Reading
  • This mailing list is a public mailing list - anyone may join or leave, at any time.
  • This mailing list is announce-only.

International Space Station (ISS) / Hubble Space Telescope (HST) / Chandra X-Ray Observatory Orbital Data via EMAIL

Privacy Policy:

Private list